Location: T�bingen+AIT
(48.5342°N, 9.0700°E)
Time: 08:20:57
(UTC+02:00)

Daily predictions for brighter satellites

Satellite Brightness Start Highest point End
(mag) Time Altitude Azimuth Time Altitude Azimuth Time Altitude Azimuth
SJ-11-01 4.4 21:05:10 10° SSE 21:09:45 61° ENE 21:14:23 10° N
SAR-Lupe-4 3.6 21:07:55 10° SSE 21:11:30 78° ENE 21:15:06 10° NNW
Lacrosse 4 Rocket 4.4 21:11:20 10° W 21:13:06 12° WSW 21:14:52 10° SW
Cosmos 1862 Rocket 3.8 21:10:00 10° S 21:14:29 83° WNW 21:19:01 10° N
Helios 1B rocket 2.5 21:12:23 10° NNE 21:16:26 54° E 21:20:27 10° S
Okean 2 Rocket 3.7 21:17:42 10° N 21:21:59 40° ENE 21:26:12 10° SE
Cosmos 2322 Rocket 3.4 21:18:00 10° SW 21:23:25 47° NW 21:28:52 10° NNE
Meteor 1-26 Rocket 4.3 21:20:00 10° S 21:25:40 65° E 21:31:29 10° NNE
Cosmos 1777 Rocket 4.0 21:21:18 10° NNW 21:26:37 78° ENE 21:31:51 10° SSE
BREEZE-M DEB (TANK) 3.6 21:24:07 10° W 21:27:26 69° S 21:37:05 10° E
SAR-Lupe-1 4.2 21:25:08 10° S 21:28:42 77° WSW 21:32:19 10° NNW
ATLAS 5 CENTAUR R/B 3.8 21:23:20 10° NW 21:28:43 35° WSW 21:34:30 10° S
Cosmos 2360 Rocket 2.2 21:23:22 10° SSW 21:29:02 88° ESE 21:34:45 10° NNE
USA 234 3.3 21:24:01 10° ESE 21:30:35 83° NNE 21:37:09 10° NW
Cosmos 2237 4.3 21:25:44 10° S 21:31:19 58° ESE 21:36:57 10° NE
Cosmos 2266 Rocket 4.1 21:27:39 10° N 21:34:00 80° E 21:40:25 10° SSE
Cosmos 1703 Rocket 3.6 21:31:18 10° S 21:35:41 66° E 21:40:03 10° NNE
Cosmos 1933 4.5 21:34:17 10° SSW 21:38:10 47° WNW 21:42:05 10° N
CZ-4B DEB 3.3 21:35:54 10° S 21:38:52 54° W 21:41:52 10° NNW
ARGOS 3.8 21:36:21 11° SE 21:41:03 40° ENE 21:46:03 10° N
COSMOS 2428 2.8 21:35:41 10° S 21:41:11 54° ESE 21:46:45 10° NE
MOS 1-B Rocket 4.4 21:37:34 11° SE 21:42:39 42° ENE 21:47:54 10° N
Cosmos 1844 3.7 21:38:05 10° NNW 21:43:48 74° ENE 21:48:53 13° SE
NOAA 11 4.5 21:39:24 10° SE 21:44:40 55° ENE 21:50:01 10° N
Abrixas rocket 2.3 21:41:41 10° W 21:44:57 62° SSW 21:47:22 16° ESE
Cosmos 2322 4.0 21:47:56 10° SW 21:53:38 73° WNW 21:59:22 10° NNE
Cosmos 1782 3.2 21:49:57 10° SSE 21:53:40 42° E 21:57:28 10° NNE
SL-16 R/B 4.3 21:51:30 10° WSW 21:56:29 31° NW 22:01:30 10° NNE
Cosmos 2151 Rocket 4.1 21:52:45 10° N 21:57:02 44° ENE 22:00:08 17° SE
Atlas Centaur 2 4.3 21:55:11 10° SW 21:58:37 15° S 22:01:41 11° SSE
Meteor 2-10 Rocket 4.4 21:55:35 10° SSW 22:01:18 59° WNW 22:06:57 10° N
MetOp-A 4.1 21:57:13 13° SSE 22:02:03 75° ENE 22:07:25 10° NNW
Cosmos 1844 Rocket 3.0 21:57:44 10° NNW 22:03:16 65° WSW 22:08:20 12° SSE
Cosmos 1346 Rocket 3.9 22:02:02 20° SE 22:03:38 26° E 22:06:58 10° NE
Meteor 1-10 Rocket 4.5 21:59:02 10° S 22:04:44 54° E 22:10:23 10° NNE
Meteor 1-11 Rocket 4.2 22:00:10 10° N 22:05:27 44° ENE 22:09:10 19° SE
Meteor 1-25 Rocket 4.4 21:59:57 10° NNW 22:05:31 73° W 22:11:01 10° S
Meteor 1-20 Rocket 4.4 22:02:38 10° NNW 22:08:15 78° W 22:13:56 10° S
YAOGAN 6 3.3 22:05:03 10° S 22:08:35 52° W 22:12:05 10° NNW
Cosmos 2237 Rocket 2.9 22:05:28 12° SSE 22:09:59 33° ESE 22:15:00 10° NE
Cosmos 2278 Rocket 2.3 22:06:24 10° NNW 22:12:05 69° ENE 22:16:00 20° SE
Envisat 4.5 22:08:03 10° SSW 22:12:39 34° W 22:17:18 10° NNW
Cosmos 2221 Rocket 3.9 22:08:21 10° SSW 22:12:46 70° W 22:17:14 10° N
SPOT 5 2.7 22:09:28 18° SSE 22:12:53 69° ENE 22:17:21 10° N
NOSS 3-1 (C) 3.4 22:08:30 10° SSW 22:14:11 57° ESE 22:20:37 10° NE
Cosmos 2333 4.2 22:10:16 10° SSW 22:16:01 86° ESE 22:21:50 10° NNE
Cosmos 1606 2.7 22:13:42 17° S 22:16:28 62° E 22:20:13 10° NNE
Cosmos 1553 Rocket 4.4 22:12:06 17° SSE 22:16:33 43° E 22:22:20 10° NNE
YAOGAN 11 4.0 22:14:21 18° SSE 22:17:35 89° WSW 22:21:55 10° NNW
H-2A R/B 3.3 22:15:43 20° ESE 22:17:46 29° ENE 22:21:35 10° N
SeaSat 1 2.8 22:16:26 21° SE 22:19:34 55° NE 22:24:24 10° NNW
Cosmos 2333 Rocket 2.4 22:14:25 10° S 22:19:58 52° ESE 22:25:34 10° NE
USA 229 DEB 4.1 22:15:52 10° SW 22:22:42 70° NW 22:29:43 10° NE
USA 229 4.0 22:15:59 10° SW 22:22:49 70° NW 22:29:50 10° NE
ERS-1 Rocket 3.7 22:21:58 10° S 22:26:51 51° W 22:31:45 10° NNW
Landsat 7 4.3 22:24:36 24° SE 22:27:03 45° ENE 22:31:36 10° N
Cosmos 2219 Rocket 2.1 22:24:37 10° SSW 22:30:12 75° ESE 22:35:51 10° NNE
Meteor 2-6 Rocket 4.3 22:25:51 10° S 22:31:49 78° E 22:37:45 10° NNE
NOSS 3-1 (A) 3.4 22:26:45 10° SSW 22:32:26 57° ESE 22:38:53 10° NE
Cosmos 2298 Rocket 4.3 22:27:44 10° NNW 22:33:00 58° ENE 22:35:49 27° SE
Timation 1 Rocket 4.3 22:27:23 10° NNW 22:33:24 77° ENE 22:36:56 26° SE
Cosmos 1300 Rocket 3.7 22:29:16 10° N 22:33:34 55° ENE 22:35:25 31° SE
ATLAS 2AS CENTAUR R/B 4.1 22:32:55 20° ESE 22:34:19 21° ESE 22:39:58 10° ENE
Cosmos 2084 4.2 22:31:50 10° NW 22:35:25 38° SW 22:37:12 24° S
Cosmos 1937 Rocket 3.8 22:31:03 10° NNW 22:36:12 52° ENE 22:38:45 28° SE
H-2A R/B 1.9 22:33:35 27° SSE 22:36:19 69° ENE 22:41:13 10° N
USA 267 3.6 22:30:23 10° NE 22:36:53 69° NNW 22:43:22 10° WSW
Okean 1-7 4.2 22:32:59 10° SSW 22:37:12 44° WNW 22:41:26 10° N
ASTEX 1 3.7 22:35:45 28° SE 22:38:07 51° ENE 22:42:56 10° N
Cosmos 1633 2.6 22:34:38 10° NNW 22:38:20 78° W 22:39:59 31° S
Cosmos 990 Rocket 4.4 22:35:24 10° NNW 22:40:23 48° ENE 22:42:45 28° ESE
Iridium 4 Rocket 3.4 22:37:01 10° N 22:41:01 43° E 22:42:15 34° SE
Cosmos 1570 Rocket 4.0 22:36:42 10° SSW 22:41:58 89° ESE 22:47:18 10° NNE
Terra 2.3 22:40:11 29° ESE 22:42:10 45° ENE 22:46:43 10° N
Cosmos 2292 Rocket 4.3 22:41:05 10° NNE 22:43:18 22° ENE 22:43:18 22° ENE
CZ-4C R/B 3.0 22:37:11 10° NW 22:44:11 71° SW 22:49:03 25° SSE
Cosmos 858 Rocket 4.4 22:43:57 10° NNW 22:49:12 77° ENE 22:51:34 33° SSE
S3M 3.9 22:45:09 21° S 22:49:23 70° E 22:55:36 10° NNE
ATLAS CENTAUR R/B 2.5 22:50:47 27° E 22:50:47 27° E 22:53:22 10° ENE
ATLAS 3B R/B 3.4 22:44:20 10° NW 22:50:58 44° NE 22:55:36 18° E
Aureole 2 Rocket 1.9 22:53:58 67° NNE 22:53:58 67° NNE 22:56:26 10° NNE
Cosmos 2208 Rocket 4.1 22:50:58 10° SSW 22:56:19 78° WNW 23:01:38 10° NNE
Okean 3 3.8 22:55:53 40° ESE 22:56:26 42° E 23:00:24 10° NNE
DMSP B5D2-2 4.3 22:51:31 10° NNE 22:56:40 51° E 22:58:36 34° SSE
Cosmos 1536 2.8 22:54:20 10° N 22:58:23 72° E 22:59:23 48° SSE
Cosmos 1763 Rocket 4.2 23:00:59 32° ESE 23:01:33 33° ESE 23:06:15 10° NE
Cosmos 1378 Rocket 3.9 23:00:44 42° SE 23:01:35 48° E 23:05:53 10° NNE
Cosmos 2369 Rocket 4.0 23:00:12 10° N 23:04:27 21° NE 23:08:03 12° E
Cosmos 1898 Rocket 3.6 23:00:25 10° NNW 23:05:35 70° WSW 23:07:47 35° S
Cosmos 2150 Rocket 4.0 23:00:41 10° NNW 23:06:11 89° SW 23:08:24 38° SSE
SL-08 RB Rocket 4.5 23:04:34 25° SSW 23:06:56 47° W 23:11:20 10° NNW
IGS 5A 3.4 23:06:21 50° SE 23:07:17 69° ENE 23:11:26 10° N
Spot 4 4.4 23:07:27 35° ESE 23:08:48 45° ENE 23:13:21 10° N
Cosmos 371 Rocket 4.0 23:10:41 34° ESE 23:10:42 34° ESE 23:15:05 10° NE
NOSS 0 Rocket 3.9 23:05:01 10° SSW 23:11:10 83° WNW 23:17:22 10° NNE
Cosmos 2297 3.6 23:05:52 10° NNW 23:11:37 89° NE 23:13:51 39° SSE
USA 234 4.1 23:11:02 25° S 23:14:01 36° SW 23:19:59 10° WNW
CZ-4C R/B 4.0 23:14:46 35° ENE 23:14:50 35° ENE 23:18:08 10° N
Cosmos 1745 Rocket 4.2 23:10:57 10° NNW 23:17:15 70° W 23:20:48 28° S
ARGOS 4.4 23:17:51 17° SSW 23:21:21 34° W 23:26:16 10° NNW
USA 238 DEB 4.4 23:15:05 10° NW 23:21:57 51° NE 23:26:21 23° ESE
USA 238 4.4 23:15:10 10° NW 23:22:03 50° NE 23:26:27 23° ESE
CZ-4 R/B 4.0 23:18:03 10° NNE 23:22:48 52° E 23:23:30 47° SE
Meteor 1-27 Rocket 4.1 23:19:15 18° SSW 23:23:27 63° WNW 23:28:58 10° N
deb Chang Zheng 4 3.5 23:20:32 10° NNE 23:24:55 72° ESE 23:25:37 59° SSE
CARTOSAT-1 3.6 23:25:03 52° SSW 23:26:01 72° WSW 23:30:21 10° NNW
Cosmos 1980 4.0 23:21:50 10° SW 23:27:27 66° WNW 23:33:07 10° NNE
Cosmos 1814 Rocket 3.8 23:28:44 46° S 23:30:14 74° ESE 23:35:24 10° NNE
Cosmos 332 Rocket 3.7 23:31:54 57° SSE 23:32:38 66° ESE 23:37:25 10° NNE
SL-16 R/B 2.2 23:33:17 45° S 23:34:53 64° ESE 23:40:32 10° NNE
CZ-4B R/B 3.4 23:30:48 10° NNE 23:35:31 58° ESE 23:36:02 55° SE
Cosmos 1812 3.4 23:36:50 44° ENE 23:36:50 44° ENE 23:40:01 10° NNE
Cosmos 468 Rocket 4.1 23:33:57 27° SSW 23:36:55 76° WNW 23:42:17 10° NNE
Cosmos 2285 Rocket 3.9 23:36:09 38° S 23:38:42 71° ESE 23:45:03 10° NNE
Cosmos 1455 Rocket 3.5 23:37:34 10° N 23:41:53 46° ENE 23:42:08 46° E
Okean 1 Rocket 4.0 23:37:51 10° NNW 23:42:04 42° W 23:43:17 34° SW
CZ-2C R/B 4.2 23:39:55 10° NE 23:43:58 20° E 23:44:01 20° E
Cosmos 1743 4.4 23:41:07 10° NNE 23:43:55 23° ENE 23:43:55 23° ENE
Geosat 3.9 23:41:28 10° NE 23:46:28 61° ESE 23:46:57 58° SE
SL-24 DEB 4.1 23:46:36 67° SE 23:47:07 76° E 23:51:45 10° N
Cosmos 841 Rocket 3.4 23:48:39 60° SE 23:49:14 65° ESE 23:54:23 10° NNE
H-2A R/B 3.2 23:52:50 31° WSW 23:53:42 34° W 23:57:44 10° NNW
Cosmos 2237 Rocket 3.1 23:48:23 10° SW 23:53:52 48° NW 23:59:24 10° NNE
Cosmos 2278 Rocket 4.0 23:51:26 10° NW 23:55:36 21° W 23:57:51 17° SW
